Lid_Strength_Index
-0 -0 0 3 11 12 14 13 9 10 10 7 6 7 9 8 10 12 2 1 0 0 -0 -1 -1 -2 -1 -1 -2 -2 -2 -1 -1 -2 -2 -2 -1 -1 -1 -1 -1 -2 -2 -2 -2 -1 -1 -1 -1
0 1 2 6 13 16 15 10 11 9 7 6 6 6 8 9 5 4 3 1 0 -0 -0 -0 -1 -2 -1 -2 -2 -2 -2 -1 -1 -2 -2 -2 -2 -2 -2 -2 -2 -2 -2 -2 -2 -2 -2 -1 -1
0 1 7 10 13 16 15 10 9 7 6 6 7 5 7 8 4 4 1 0 -0 0 -0 -0 -1 -1 -2 -1 -2 -2 -2 -2 -2 -2 -2 -1 -1 -2 -1 -1 -2 -2 -2 -2 -2 -1 -1 -1 -1
2 4 6 12 14 11 11 9 8 7 6 5 6 9 5 3 4 2 1 0 0 0 -0 -1 -2 -1 -2 -1 -2 -2 -1 -1 -2 -2 -2 -2 -2 -2 -2 -2 -2 -1 -1 -1 -1 -1 -1 -1 -1
3 6 12 13 12 10 8 7 7 8 7 7 6 9 7 3 1 1 1 0 1 0 -0 -0 -2 -2 -1 -1 -1 -2 -1 -1 -1 -2 -2 -2 -2 -2 -2 -2 -2 -2 -2 -2 -1 -1 -1 -1 -1
7 7 13 14 12 9 8 7 7 7 7 7 7 8 7 2 2 1 1 1 0 0 -0 -0 -1 -1 -2 -1 -1 -1 -1 -1 -1 -2 -2 -2 -2 -2 -2 -2 -2 -1 -1 -1 -1 -1 -1 -1 -1
8 10 12 11 11 10 8 5 7 8 8 8 5 9 6 4 2 1 1 0 0 -0 0 -0 -0 -1 -1 -2 -1 -1 -1 -1 -1 -2 -2 -2 -2 -2 -2 -2 -2 -1 -1 -1 -1 -1 -1 -1 -1
6 8 11 11 12 11 6 6 5 7 7 4 4 9 9 4 2 1 1 1 1 0 0 0 0 -0 -0 -0 -1 -2 -2 -2 -2 -2 -2 -2 -2 -2 -2 -2 -2 -2 -1 -1 -1 -1 -1 -1 -1
4 10 12 11 10 9 6 7 5 4 6 5 5 5 4 2 2 2 2 2 1 1 0 0 0 1 0 0 -1 -1 -2 -2 -2 -2 -2 -2 -0 1 -0 -1 -2 -2 -2 -1 -1 -1 -1 -1 -1
7 11 10 7 7 8 7 6 6 7 7 7 6 4 3 3 3 3 4 4 3 2 1 0 1 0 0 -0 0 0 -0 -0 0 -0 -0 0 0 1 -0 -1 -2 -2 -1 -1 -1 -1 -1 -1 0
7 10 7 7 6 6 7 7 6 8 9 7 7 6 4 4 4 4 3 3 3 2 1 1 0 0 0 0 0 0 1 1 0 -0 0 0 1 1 0 0 0 1 -1 0 -0 0 -0 -0 -0
8 6 6 6 5 6 7 6 7 7 7 5 5 4 4 4 4 4 4 3 2 2 1 1 0 0 0 0 -0 0 0 1 1 0 0 -0 1 1 2 1 1 1 0 1 0 0 0 -0 -0
7 6 6 5 6 6 5 7 6 6 5 4 4 4 4 4 4 3 3 2 2 2 1 1 0 0 0 1 0 1 0 1 1 2 0 -0 1 1 2 2 1 0 0 0 0 0 -0 -0 -0
7 6 6 6 6 6 7 6 6 6 4 5 5 5 4 4 4 3 3 3 2 2 2 1 1 0 0 0 1 1 1 1 1 2 -0 -0 0 0 1 1 1 1 -0 -0 0 0 0 0 -0
6 7 7 6 6 7 6 8 8 6 5 6 6 5 5 4 3 4 3 3 2 2 1 1 1 0 0 0 0 1 1 1 0 0 -0 -0 0 0 0 1 1 0 0 -0 0 1 -0 1 0
8 8 10 7 6 6 7 12 7 5 6 6 6 5 5 4 4 3 2 2 2 2 2 1 1 1 1 0 0 1 0 0 -0 -0 0 -0 -0 -0 -0 1 1 0 0 0 0 0 1 1 1
10 12 10 8 6 7 8 10 7 6 6 7 6 5 5 5 4 3 2 2 2 1 2 1 1 1 1 1 0 1 1 1 1 1 1 -0 -0 -0 -0 0 0 0 1 1 1 1 1 2 2
12 12 10 10 8 8 9 9 8 7 7 7 6 6 5 5 4 3 2 2 2 2 2 1 1 1 1 1 1 1 1 2 2 2 1 0 -0 -0 -0 -0 0 -0 1 1 1 1 1 1 1
10 11 11 9 8 8 9 10 9 7 7 7 7 6 6 5 4 4 3 2 2 2 2 2 2 1 1 1 2 2 2 1 1 1 1 1 0 -0 -0 0 0 -0 1 1 1 1 2 2 1
11 11 11 9 8 9 10 10 8 8 7 7 7 6 6 5 5 4 3 3 2 2 2 2 1 1 1 1 1 1 1 1 1 0 1 1 1 0 0 0 0 0 1 2 1 2 2 2 2
13 11 11 11 9 9 10 11 10 7 7 6 6 5 5 5 5 4 4 3 3 3 2 2 2 1 1 1 1 2 1 2 2 2 1 1 1 0 0 0 1 1 0 1 2 1 2 3 2
12 9 9 10 12 14 11 15 11 9 9 8 7 6 6 5 4 4 4 4 3 2 2 1 1 1 1 1 1 2 2 3 2 2 1 1 1 1 0 0 1 1 1 1 1 1 1 2 3
11 8 9 9 13 14 11 13 13 10 11 10 8 7 6 5 5 5 4 3 2 2 2 2 2 1 1 1 1 1 2 2 2 2 2 1 1 1 1 1 0 1 1 1 1 1 1 1 2
9 10 11 12 14 16 14 13 14 13 11 9 8 7 6 5 5 5 4 5 4 3 2 2 2 2 2 2 2 2 2 2 3 3 2 2 1 1 1 1 1 0 1 2 1 1 1 1 1
11 13 16 16 16 16 14 14 13 10 8 8 8 7 6 5 5 5 4 4 5 5 3 2 2 2 2 3 2 2 2 2 2 2 2 2 2 1 1 1 2 1 1 1 2 1 1 1 1
12 13 16 18 18 16 13 16 13 8 7 7 7 6 6 5 5 5 4 4 4 3 2 3 5 5 6 2 2 4 1 1 1 1 2 2 2 1 1 1 2 2 1 1 1 1 1 1 1
13 14 14 15 15 16 15 12 10 9 8 7 8 7 7 6 5 5 4 4 3 4 3 3 5 4 3 2 1 4 2 1 1 1 2 2 2 2 1 1 2 2 2 1 1 1 1 1 1
10 11 14 15 18 20 17 16 15 12 10 8 8 8 7 5 5 5 4 4 3 3 2 2 3 2 3 3 2 2 1 1 1 1 2 2 2 2 2 2 3 2 2 1 0 1 1 1 1
12 12 13 14 14 18 19 16 10 10 9 9 8 7 6 6 5 5 4 3 3 3 2 2 2 3 4 4 3 2 1 1 1 1 1 2 2 3 3 2 2 2 2 1 1 1 1 1 1
10 11 13 14 15 16 16 15 9 8 8 7 7 6 6 5 5 4 5 4 4 3 3 3 2 2 2 3 3 2 2 1 2 2 2 1 2 3 3 2 2 3 3 1 1 1 1 1 2